Date,TemperatureHighF,TemperatureAvgF,TemperatureLowF,DewpointHighF,DewpointAvgF,DewpointLowF,HumidityHigh,HumidityAvg,HumidityLow,PressureMaxIn,PressureMinIn,WindSpeedMaxMPH,WindSpeedAvgMPH,GustSpeedMaxMPH,PrecipitationSumIn
2013-2-1,22.8,15.8,12.9,18.4,14.5,10.9,98,95,68,30.12,29.64,15,8,0,0.00
2013-2-2,19.9,14.4,10.4,17.5,11.9,6.1,98,90,74,30.12,29.89,11,4,0,0.00
2013-2-3,25.3,16.8,10.6,18.4,13.3,10.1,98,88,54,29.89,29.71,10,3,0,0.00
2013-2-4,18.7,15.3,12.7,15.3,12.8,8.1,98,90,70,29.89,29.79,16,6,0,0.00
2013-2-5,26.2,19.3,12.4,22.3,17.5,11.9,98,93,76,29.87,29.77,8,2,0,0.00
2013-2-6,26.4,21.3,12.2,23.8,18.0,11.5,98,88,55,30.31,29.81,12,5,0,0.00
2013-2-7,30.0,21.8,10.4,25.7,18.4,9.9,98,87,68,30.34,30.00,8,3,0,0.00
2013-2-8,35.1,27.9,15.1,34.6,26.9,14.6,98,96,83,30.02,29.70,10,4,0,0.01
2013-2-9,19.8,15.0,10.0,19.3,14.6,9.6,98,98,98,30.35,30.03,8,5,0,0.00
2013-2-10,37.2,23.9,9.7,27.7,18.7,9.2,98,82,61,30.34,29.93,10,4,0,0.05
2013-2-11,49.5,37.1,30.4,48.2,34.6,25.9,98,91,66,29.91,29.54,28,12,0,0.01
2013-2-12,31.5,29.1,27.7,31.0,28.6,27.2,98,98,98,29.92,29.68,22,12,0,0.00
2013-2-13,38.8,29.6,23.4,29.4,26.9,22.9,98,90,61,29.86,29.67,8,2,0,0.00
2013-2-14,40.1,31.3,23.4,38.1,30.0,22.9,98,95,75,29.86,29.73,8,3,0,0.02
2013-2-15,36.3,30.7,20.5,35.8,27.5,17.1,98,88,66,30.00,29.72,26,11,0,0.00
2013-2-16,30.6,21.2,13.5,22.5,16.4,11.0,98,84,49,30.00,29.85,8,3,0,0.00
2013-2-17,17.2,12.3,7.7,16.8,10.6,3.3,98,93,65,30.11,29.82,13,6,0,0.00
2013-2-18,32.2,19.7,7.3,23.5,14.6,6.9,98,82,58,30.21,29.86,6,3,0,0.00
2013-2-19,41.4,31.2,20.5,40.8,28.2,20.0,98,90,66,29.86,29.51,25,9,0,0.09
2013-2-20,21.2,17.4,14.9,19.8,16.2,12.4,98,95,80,30.00,29.68,20,12,0,0.00
2013-2-21,19.6,16.1,11.3,18.0,15.2,10.8,98,96,85,30.35,29.97,13,7,0,0.00
2013-2-22,32.7,26.3,17.6,32.2,25.7,17.1,98,98,93,30.31,29.96,10,6,0,0.00
2013-2-23,37.0,31.0,28.4,36.5,28.8,-99.9,98,95,84,29.96,29.83,8,-9,0,0.02
2013-2-25,33.4,29.5,23.5,25.4,22.1,-99.9,98,78,67,30.18,30.14,7,-14,0,0.00
2013-2-26,38.7,32.0,22.8,31.4,25.8,20.1,99,79,58,30.17,29.72,12,6,0,0.04
2013-2-27,41.0,33.1,30.7,34.8,32.0,30.5,99,96,76,29.72,29.52,8,3,0,0.29
2013-2-28,34.5,31.5,29.8,31.7,30.6,29.6,99,96,85,29.68,29.49,9,6,0,0.07